Погода в Кулешовке

Россия / Самарская область     52°46′55″N   51°06′09″E
темп.,
°C
ветер,
м/с
пор.,
м/с
влажн.,
%
обл.,
%
осадки,
мм/ч
давл.,
гПа
погр.,
м
2 марта, вт
вт201:00−18зюз349714 0.0 102142
04:00−16юз599844 0.0 1020141
07:00−14юз71195100 0.0 1016246
10:00−11юз91593100 0.0 1014401
13:00−7юз91694100 0.7 1010661
16:00−3юз91591100 1.1 1007797
19:00−2юз91595100 1.4 1005745
22:00−1юз71396100 2.6 1004618
3 марта, ср
ср301:00−1юз61097100 1.1 1002440
04:00−2з3598100 1.6 1002147
07:00−4зсз2395100 0.0 100234
10:00−4зсз2494100 0.0 1003158
13:00−3з359596 0.0 1003278
16:00−2зсз589395 0.1 1004543
19:00−6зсз369594 0.1 100596
22:00−8зсз4109591 0.3 1007211
4 марта, чт
чт401:00−8сз5119382 0.1 1008427
04:00−12з479471 0.1 1010109
07:00−13зюз58950 0.0 1010128
10:00−10юз6119426 0.0 1011292
13:00−7юз71294100 0.0 1009379
16:00−4юз91591100 0.1 1008801
19:00−2юз101795100 0.9 1006848
22:000юз101689100 1.3 10051025
5 марта, пт
пт501:00−1юз101687100 0.0 1004914
04:00−2юз91786100 0.0 1003634
07:00−2юз91692100 0.1 1003659
10:000юз91593100 0.6 1004775
13:00+1зюз713100100 0.3 1006636
16:00−2ссз3696100 1.6 1008335
19:00−5ссз349299 0.1 101178
22:00−10с228771 0.1 101421
6 марта, сб
сб601:00−11св1282100 0.0 101521
04:00−9в3384100 0.0 101473
07:00−7вюв5996100 0.9 1011282
10:00−4юв61197100 4.2 1007321
13:00+1юз81599100 2.3 1004707
16:00+1юз71399100 4.5 1003553
19:00−5сз5995100 1.4 1004370
22:00−9ссз5995100 1.5 1007278